This demonstration page uses our WeatherBlox Daily Observations layout. Learn more.

Left ArrowRight Arrow

41.86663, -103.66717

Hourly Observations for September 10, 2020

Temp ( °F °C ) Dew Point ( °F °C ) Humidity (%) Winds ( mph kmh ) Pressure ( in mb ) Visibility ( mi km ) Precip ( " mm )
12:53 am 00:53 Clear 33 0.6 31 -0.6 92 92 E 3 6 30.45 1031 10 16.0934 0 0
1:53 am 01:53 Clear 33 0.6 31 -0.6 92 92 SE 3 6 30.45 1031 10 16.0934 0 0
2:53 am 02:53 Clear 32 0 30 -1.1 92 92 Calm 30.45 1031 9 14.48406 0 0
3:53 am 03:53 Clear 32 0 30 -1.1 92 92 ENE 3 6 30.43 1031 10 16.0934 0 0
4:53 am 04:53 Clear 30 -1.1 29 -1.7 96 96 N 5 7 30.43 1031 8 12.87472 0 0
5:53 am 05:53 Clear 30 -1.1 29 -1.7 96 96 Calm 30.43 1031 7 11.26538 0 0
6:53 am 06:53 Sunny 31 -0.6 30 -1.1 96 96 N 3 6 30.43 1031 7 11.26538 0 0
7:53 am 07:53 Sunny 37 2.8 34 1.1 89 89 Calm 30.42 1030 9 14.48406 0 0
8:53 am 08:53 Sunny 39 3.9 36 2.2 89 89 S 3 6 30.44 1031 7 11.26538 0 0
9:53 am 09:53 Sunny 45 7.2 36 2.2 71 71 Calm 30.43 1031 10 16.0934 0 0
10:53 am 10:53 Mostly Sunny 50 10 35 1.7 57 57 SSW 3 6 30.41 1030 10 16.0934 0 0
11:53 am 11:53 Cloudy 51 10.6 35 1.7 54 54 S 5 7 30.4 1029 10 16.0934 0 0
12:53 pm 12:53 Cloudy 54 12.2 36 2.2 51 51 Calm 30.36 1028 10 16.0934 0 0
1:53 pm 13:53 Cloudy 54 12.2 36 2.2 51 51 S 9 15 30.37 1028 10 16.0934 0 0
2:53 pm 14:53 Cloudy 55 12.8 37 2.8 51 51 SE 9 15 30.34 1027 10 16.0934 0 0
3:53 pm 15:53 Mostly Cloudy 55 12.8 36 2.2 49 49 E 8 13 30.31 1027 10 16.0934 0 0
4:53 pm 16:53 Sunny 57 13.9 37 2.8 47 47 E 8 13 30.29 1026 10 16.0934 0 0
5:53 pm 17:53 Sunny 56 13.3 37 2.8 49 49 ESE 9 15 30.3 1026 10 16.0934 0 0
6:53 pm 18:53 Mostly Cloudy 53 11.7 39 3.9 59 59 ESE 8 13 30.3 1026 10 16.0934 0 0
7:53 pm 19:53 Partly Cloudy 49 9.4 39 3.9 69 69 E 7 11 30.29 1026 10 16.0934 0 0
8:53 pm 20:53 Cloudy 49 9.4 39 3.9 69 69 E 7 11 30.3 1026 10 16.0934 0 0
9:53 pm 21:53 Cloudy 49 9.4 40 4.4 71 71 E 3 6 30.26 1025 10 16.0934 0 0
10:53 pm 22:53 Cloudy with Light Rain 47 8.3 44 6.7 90 90 SSE 6 9 30.27 1025 6 9.65604 0.07 1.778
11:53 pm 23:53 Cloudy with Light Rain 47 8.3 46 7.8 97 97 S 7 11 30.25 1024 6 9.65604 0.21 5.334

Powered by AerisWeather